Date String (YYYY-MM-DD hh:mm:ss) UTC,Instrument flags,Ambient pressure (hPa),Sample flow (lpm),Bypass flow (lpm),Sample temperature (°C),Ambient temperature (°C),ASC tube jacket temperature (°C),LED temperature (°C),Box temperature (°C),Sample RH (%),Span deviation,Mass concentration (μg/m³),Mass concentration (μg/m³),Mass concentration (μg/m³)
DateTimeUTC,F1_M11,P_M11,Q1_M11,Q2_M11,T1_M11,T2_M11,T3_M11,T4_M11,T5_M11,U1_M11,ZSPAN_M11,X0_M11,X2_M11,X1_M11
2022-02-09 07:00:00,,0827.0,5.01,0.00,22.6,21.8,00.0,31.5,24.3,06.1,0000.0,0002.46,0000.98,0000.66
2022-02-09 07:01:00,,0827.0,5.00,0.00,22.5,21.8,00.0,31.5,24.3,06.1,0000.0,0002.73,0000.95,0000.65
2022-02-09 07:02:00,,0827.0,5.00,0.00,22.5,21.8,00.0,31.5,24.3,06.2,0000.0,0002.83,0000.96,0000.65
2022-02-09 07:03:00,,0827.0,4.99,0.00,22.5,21.8,00.0,31.5,24.3,06.0,0000.0,0002.88,0000.96,0000.65
2022-02-09 07:04:00,,0827.0,5.01,0.00,22.6,21.8,00.0,31.5,24.3,06.0,0000.0,0002.83,0000.95,0000.65
2022-02-09 07:05:00,,0826.9,4.99,0.00,22.6,21.9,00.0,31.5,24.4,06.2,0000.0,0002.70,0000.90,0000.65
2022-02-09 07:06:00,,0826.9,5.01,0.00,22.6,21.9,00.0,31.5,24.4,06.3,0000.0,0002.81,0000.91,0000.66
2022-02-09 07:07:00,,0827.0,4.98,0.00,22.6,21.9,00.0,31.5,24.4,06.1,0000.0,0002.87,0000.95,0000.67
2022-02-09 07:08:00,,0826.9,5.00,0.00,22.6,21.9,00.0,31.5,24.4,05.9,0000.0,0002.76,0000.97,0000.67
2022-02-09 07:09:00,,0827.0,5.00,0.00,22.6,21.9,00.0,31.5,24.4,06.0,0000.0,0002.78,0000.98,0000.67
2022-02-09 07:10:00,,0827.0,5.00,0.00,22.6,21.9,00.0,31.5,24.4,06.0,0000.0,0002.72,0000.97,0000.68
2022-02-09 07:11:00,,0827.0,5.01,0.00,22.6,21.9,00.0,31.5,24.5,06.0,0000.0,0002.19,0000.97,0000.68
2022-02-09 07:12:00,,0827.0,4.99,0.00,22.6,22.0,00.0,31.5,24.5,05.9,0000.0,0001.76,0001.00,0000.69
2022-02-09 07:13:00,,0827.0,5.01,0.00,22.6,22.0,00.0,31.5,24.5,05.9,0000.0,0001.76,0001.01,0000.69
2022-02-09 07:14:00,,0827.0,5.00,0.00,22.7,22.0,00.0,31.5,24.5,05.9,0000.0,0001.77,0001.04,0000.69
2022-02-09 07:15:00,,0826.9,5.01,0.00,22.7,22.0,00.0,31.6,24.5,06.0,0000.0,0001.75,0001.03,0000.68
2022-02-09 07:16:00,,0826.9,4.99,0.00,22.7,22.0,00.0,31.6,24.5,06.2,0000.0,0001.75,0001.03,0000.67
2022-02-09 07:17:00,,0826.9,5.01,0.00,22.7,22.0,00.0,31.6,24.5,06.3,0000.0,0001.61,0000.99,0000.66
2022-02-09 07:18:00,,0826.9,4.99,0.00,22.7,22.0,00.0,31.6,24.5,06.1,0000.0,0001.51,0000.94,0000.64
2022-02-09 07:19:00,,0826.9,4.99,0.00,22.7,22.0,00.0,31.6,24.5,06.2,0000.0,0001.43,0000.91,0000.64
2022-02-09 07:20:00,,0826.9,5.01,0.00,22.7,22.0,00.0,31.6,24.6,06.3,0000.0,0001.42,0000.89,0000.64
2022-02-09 07:21:00,,0827.0,4.99,0.00,22.7,22.0,00.0,31.6,24.5,06.3,0000.0,0001.49,0000.88,0000.62
2022-02-09 07:22:00,,0827.0,5.00,0.00,22.7,22.0,00.0,31.6,24.6,06.2,0000.0,0001.64,0000.94,0000.63
2022-02-09 07:23:00,,0827.0,5.02,0.00,22.7,22.0,00.0,31.6,24.6,05.9,0000.0,0001.59,0000.91,0000.62
2022-02-09 07:24:00,,0827.0,4.99,0.00,22.7,22.0,00.0,31.6,24.6,06.0,0000.0,0001.50,0000.88,0000.62
2022-02-09 07:25:00,,0827.0,4.99,0.00,22.8,22.0,00.0,31.6,24.6,06.0,0000.0,0001.59,0000.87,0000.62
2022-02-09 07:26:00,,0827.0,5.02,0.00,22.8,22.1,00.0,31.7,24.6,05.8,0000.0,0002.21,0000.88,0000.63
2022-02-09 07:27:00,,0827.0,5.00,0.00,22.8,22.1,00.0,31.7,24.6,06.2,0000.0,0002.27,0000.91,0000.64
2022-02-09 07:28:00,,0827.0,5.00,0.00,22.8,22.1,00.0,31.7,24.7,06.6,0000.0,0002.36,0000.94,0000.66
2022-02-09 07:29:00,,0827.0,5.01,0.00,22.8,22.1,00.0,31.7,24.6,06.1,0000.0,0002.37,0000.96,0000.67
2022-02-09 07:30:00,,0827.0,4.99,0.00,22.8,22.1,00.0,31.7,24.6,06.1,0000.0,0002.47,0001.00,0000.69
2022-02-09 07:31:00,,0827.0,5.00,0.00,22.8,22.1,00.0,31.7,24.6,06.0,0000.0,0002.51,0001.03,0000.71
2022-02-09 07:32:00,,0827.0,5.02,0.00,22.8,22.1,00.0,31.7,24.6,06.1,0000.0,0002.44,0001.04,0000.72
2022-02-09 07:33:00,,0827.0,4.98,0.00,22.8,22.1,00.0,31.7,24.6,05.7,0000.0,0002.45,0001.06,0000.72
2022-02-09 07:34:00,,0827.0,4.99,0.00,22.8,22.1,00.0,31.7,24.6,06.4,0000.0,0002.73,0001.14,0000.73
2022-02-09 07:35:00,,0827.0,4.99,0.00,22.8,22.1,00.0,31.7,24.6,06.3,0000.0,0002.82,0001.19,0000.76
2022-02-09 07:36:00,,0827.0,5.01,0.00,22.8,22.1,00.0,31.7,24.6,06.2,0000.0,0002.63,0001.18,0000.78
2022-02-09 07:37:00,,0827.0,4.99,0.00,22.8,22.1,00.0,31.7,24.7,06.0,0000.0,0002.12,0001.18,0000.79
2022-02-09 07:38:00,,0827.1,4.99,0.00,22.8,22.1,00.0,31.7,24.6,06.2,0000.0,0002.15,0001.20,0000.79
2022-02-09 07:39:00,,0827.1,5.02,0.00,22.8,22.1,00.0,31.7,24.6,06.7,0000.0,0002.15,0001.22,0000.82
2022-02-09 07:40:00,,0827.1,4.99,0.00,22.8,22.1,00.0,31.7,24.6,06.1,0000.0,0002.31,0001.25,0000.83
2022-02-09 07:41:00,,0827.1,5.00,0.00,22.8,22.1,00.0,31.7,24.7,05.6,0000.0,0002.40,0001.27,0000.83
2022-02-09 07:42:00,,0827.0,5.01,0.00,22.8,22.1,00.0,31.7,24.6,05.4,0000.0,0002.46,0001.29,0000.83
2022-02-09 07:43:00,,0827.0,5.00,0.00,22.8,22.1,00.0,31.7,24.6,05.4,0000.0,0002.53,0001.29,0000.82
2022-02-09 07:44:00,,0827.1,5.00,0.00,22.8,22.1,00.0,31.7,24.7,05.4,0000.0,0002.32,0001.21,0000.83
2022-02-09 07:45:00,,0827.0,4.99,0.00,22.8,22.1,00.0,31.7,24.6,05.4,0000.0,0002.16,0001.16,0000.83
2022-02-09 07:46:00,,0827.0,5.01,0.00,22.8,22.1,00.0,31.7,24.7,05.4,0000.0,0002.22,0001.14,0000.81
2022-02-09 07:47:00,,0827.0,4.99,0.00,22.8,22.1,00.0,31.7,24.6,05.4,0000.0,0002.46,0001.17,0000.80
2022-02-09 07:48:00,,0827.0,5.00,0.00,22.8,22.1,00.0,31.7,24.6,05.4,0000.0,0002.44,0001.16,0000.80
2022-02-09 07:49:00,,0827.0,5.01,0.00,22.8,22.1,00.0,31.7,24.6,05.5,0000.0,0002.43,0001.16,0000.81
2022-02-09 07:50:00,,0827.0,4.99,0.00,22.8,22.1,00.0,31.7,24.6,05.6,0000.0,0002.48,0001.17,0000.80
2022-02-09 07:51:00,,0827.0,5.01,0.00,22.8,22.1,00.0,31.7,24.6,05.5,0000.0,0002.36,0001.15,0000.79
2022-02-09 07:52:00,,0827.0,4.99,0.00,22.8,22.1,00.0,31.7,24.6,05.5,0000.0,0002.26,0001.13,0000.78
2022-02-09 07:53:00,,0827.0,5.02,0.00,22.8,22.1,00.0,31.7,24.6,05.5,0000.0,0002.20,0001.11,0000.78
2022-02-09 07:54:00,,0827.0,5.00,0.00,22.8,22.1,00.0,31.7,24.6,05.4,0000.0,0002.11,0001.11,0000.79
2022-02-09 07:55:00,,0827.0,4.99,0.00,22.8,22.1,00.0,31.7,24.6,05.4,0000.0,0002.12,0001.12,0000.79
2022-02-09 07:56:00,,0827.0,5.02,0.00,22.8,22.1,00.0,31.7,24.7,05.8,0000.0,0002.03,0001.10,0000.80
2022-02-09 07:57:00,,0827.1,4.99,0.00,22.8,22.1,00.0,31.7,24.6,05.8,0000.0,0001.94,0001.12,0000.81
2022-02-09 07:58:00,,0827.0,5.02,0.00,22.8,22.1,00.0,31.7,24.6,05.7,0000.0,0001.76,0001.12,0000.82
2022-02-09 07:59:00,,0827.0,4.99,0.00,22.8,22.1,00.0,31.7,24.7,05.5,0000.0,0001.76,0001.14,0000.82
